Theta_e
328 329 330 331 332 333 332 332 332 332 333 333 332 330 330 331 331 330 333 332 330 329 329 329 328 327 327 328 326 328 330 331 333 333 335 336 337 337 336 335 335 335 335 335 334 337 333 331 330 330 331 330 329 329 330 330 330 329 328 329 327 325 325 328 328 327 326 324 326 326 327 330 331 330 329 329 328 328 328 329 329 327 326 326 325
328 328 329 330 330 330 330 329 330 329 330 332 332 330 329 331 330 329 331 332 331 329 329 329 328 327 326 327 327 329 329 330 332 334 334 336 336 336 336 335 335 335 336 335 335 334 332 331 330 330 330 329 330 331 330 331 330 329 328 326 327 325 324 328 328 326 320 322 321 321 324 326 329 327 327 328 329 329 329 329 326 325 326 327 326
326 326 327 328 328 328 328 327 328 330 330 330 331 330 330 332 331 329 331 332 332 332 329 329 330 330 329 329 329 328 330 330 331 334 335 335 335 336 335 334 334 335 335 337 334 334 333 331 330 330 330 331 330 329 328 328 328 328 327 325 324 325 326 329 327 323 319 321 323 321 319 318 322 325 328 328 328 329 329 328 327 326 327 328 327
324 324 325 326 326 326 326 326 326 327 329 328 328 329 332 333 332 329 331 331 332 332 331 330 330 329 329 330 330 328 327 331 331 333 333 333 334 336 336 334 334 334 336 337 335 334 333 331 330 331 330 330 329 328 327 327 328 327 326 326 326 322 324 326 328 326 324 322 315 313 317 317 315 318 321 325 329 329 328 327 327 327 328 328 327
323 323 324 324 324 324 325 325 325 325 326 327 327 327 331 333 332 331 331 330 331 332 331 330 330 326 326 329 331 330 331 331 330 330 331 332 333 333 333 333 335 335 337 337 335 333 332 331 331 331 330 329 329 328 327 328 328 328 327 326 325 324 323 325 326 327 326 325 320 316 314 312 312 317 321 321 326 326 327 327 328 327 327 326 325
324 323 324 324 323 322 322 324 324 324 325 326 327 327 329 332 331 331 331 331 330 331 330 330 329 326 326 326 326 327 326 327 327 328 329 329 331 333 333 334 335 336 337 337 335 333 331 331 331 330 330 329 329 328 327 328 328 328 328 326 326 327 327 325 324 326 327 327 322 319 319 312 313 319 319 313 324 325 326 328 327 325 323 323 323
319 320 322 321 321 321 321 322 324 324 324 324 324 326 325 328 331 331 331 331 331 330 329 330 327 327 327 327 327 327 326 328 328 330 331 331 332 331 332 333 335 335 335 335 334 333 332 332 331 330 331 330 330 328 328 328 328 328 329 328 327 327 327 325 324 323 324 326 326 324 325 320 322 319 314 318 315 321 324 324 324 325 324 324 324
320 320 320 320 320 321 321 322 322 323 324 323 322 324 324 327 332 331 330 331 332 330 329 330 328 328 328 327 326 325 327 328 328 329 331 331 331 331 331 331 332 333 332 333 333 333 332 331 331 331 331 331 331 329 329 329 329 329 330 330 328 328 327 326 323 324 323 322 323 321 321 322 322 317 319 318 317 315 318 323 325 325 325 325 325
318 318 317 318 318 318 319 320 322 323 325 326 326 326 326 328 331 331 330 330 331 330 329 329 329 328 327 327 325 327 326 326 328 329 330 332 329 329 330 331 330 331 331 331 332 332 332 331 330 330 331 331 332 331 329 329 329 329 328 328 327 327 328 327 326 324 322 322 321 318 320 320 319 318 320 318 318 317 317 319 319 324 324 324 325
319 319 318 318 319 320 321 321 321 321 323 324 326 329 329 330 330 332 331 331 331 330 330 330 329 326 325 325 325 325 325 326 329 329 329 330 330 329 328 330 329 328 329 330 331 331 331 331 331 331 330 330 331 331 330 329 329 329 329 328 328 327 326 327 327 325 324 323 323 321 319 317 317 317 316 316 318 317 317 317 319 319 318 321 324
319 318 318 318 320 321 321 320 321 322 322 324 324 323 325 330 333 332 332 333 333 331 330 328 326 326 326 326 325 325 325 326 328 328 328 328 328 327 327 327 327 326 327 328 330 331 330 331 331 331 330 331 331 330 329 330 329 329 328 328 328 327 326 325 324 324 324 324 322 322 322 321 320 316 317 317 316 313 318 318 319 319 319 319 321
316 315 315 316 317 318 320 320 321 320 322 322 323 323 323 323 326 327 326 326 330 332 329 326 327 327 327 327 326 326 326 327 326 327 327 327 327 326 326 325 325 325 325 326 327 329 329 329 330 329 329 329 330 330 330 331 330 330 329 328 327 327 327 326 324 323 322 323 323 321 320 319 316 318 319 319 318 317 319 318 319 318 318 318 322
315 315 315 316 316 316 318 319 320 318 319 321 322 323 323 323 326 323 321 323 326 329 328 325 326 327 326 326 327 327 327 326 326 326 326 326 325 325 325 324 322 324 324 326 326 328 328 327 328 327 326 328 329 329 329 331 330 330 329 328 327 326 326 326 324 323 323 324 323 321 321 320 319 319 321 320 318 320 320 318 319 320 315 317 320
314 314 315 315 315 316 317 317 318 318 319 320 320 322 322 322 325 323 321 323 328 328 327 325 326 327 327 327 327 328 327 327 326 325 324 324 325 324 324 324 324 324 325 326 327 328 328 328 328 328 327 326 327 328 328 329 329 329 328 327 327 326 325 325 324 323 323 323 322 321 320 321 319 322 322 321 320 319 318 318 318 315 316 317 319
315 315 315 315 315 316 317 318 318 317 318 319 319 322 323 323 324 325 326 325 328 324 324 325 325 326 326 325 326 326 326 327 327 327 325 324 324 324 324 324 324 325 327 327 327 328 327 326 326 326 326 325 326 326 328 327 327 328 327 327 327 325 326 325 323 323 324 321 320 321 321 320 322 322 322 322 322 322 320 319 318 315 314 316 315
315 314 314 315 316 316 317 318 318 318 319 319 320 321 323 324 326 325 324 325 323 321 322 322 324 325 325 324 325 325 325 327 327 327 326 325 325 324 324 324 325 325 325 326 327 327 325 324 324 324 324 324 324 325 325 324 324 324 323 324 325 328 326 325 323 324 323 323 322 320 322 322 323 323 323 322 322 323 322 321 319 318 315 312 314
315 315 315 316 316 318 320 320 319 318 319 320 321 322 322 323 325 323 324 324 322 322 322 323 324 323 324 325 325 324 324 325 326 326 325 325 325 324 324 325 324 324 325 325 325 324 324 323 321 321 322 322 322 324 324 324 324 324 324 323 324 324 325 325 323 324 323 322 322 323 323 323 322 321 322 322 322 322 322 321 321 319 318 314 311
317 317 317 317 318 319 320 321 320 319 320 321 322 323 324 323 322 322 321 321 321 322 323 323 323 323 323 324 324 324 324 325 325 326 325 324 324 325 323 324 324 324 325 324 323 322 323 325 320 320 320 321 322 323 324 323 323 322 323 324 324 324 323 322 323 324 323 322 320 320 320 323 321 321 320 321 321 322 321 321 320 319 317 315 313
316 316 316 317 318 319 320 321 322 321 320 321 322 322 322 322 322 321 321 323 322 323 324 323 323 324 325 324 324 324 326 325 325 326 325 325 324 325 325 324 323 323 323 322 322 321 320 320 320 319 320 320 320 321 322 322 322 321 320 321 320 323 322 321 321 324 322 323 321 321 318 321 321 322 319 320 321 321 321 320 319 318 317 315 315
314 315 317 318 319 320 320 320 320 320 321 321 322 322 322 321 322 323 323 323 323 323 324 323 324 324 326 326 325 326 326 326 326 326 325 324 324 324 324 323 323 323 322 321 320 320 320 319 319 320 318 317 319 319 321 320 320 320 321 321 318 319 320 321 320 320 326 323 322 320 320 321 320 320 321 322 321 320 321 320 318 317 316 315 315
313 314 315 317 318 320 320 321 322 322 322 322 322 321 321 321 321 322 322 322 323 323 323 323 324 324 326 327 326 325 325 325 325 324 324 324 324 324 323 323 323 322 321 320 320 320 319 320 319 319 318 315 317 317 318 319 319 318 317 318 317 319 320 318 319 318 323 323 322 321 321 321 320 320 319 319 320 319 318 320 318 316 315 314 315
312 313 314 314 315 317 319 321 321 321 321 321 321 321 322 321 321 321 322 322 322 322 323 323 324 325 326 326 325 325 325 324 324 323 324 324 324 323 323 323 322 321 321 320 319 319 319 320 319 318 316 316 317 318 317 317 318 315 314 316 316 315 316 316 315 317 318 323 321 321 321 320 320 321 319 319 317 317 317 317 315 316 315 313 314
310 310 311 313 313 315 316 317 317 318 319 319 320 321 321 322 322 321 321 320 320 322 323 323 323 323 323 323 323 324 324 323 323 323 323 324 323 323 323 322 321 319 319 320 319 319 319 319 318 317 316 315 317 316 315 316 315 315 313 313 314 313 313 314 315 317 320 319 319 320 319 319 321 319 316 315 315 315 315 316 314 314 314 313 313
308 309 309 310 311 313 314 314 315 316 316 316 317 318 320 321 322 322 321 321 322 322 322 324 324 323 322 322 322 323 323 323 322 323 323 324 324 323 323 322 321 319 319 319 319 319 319 318 318 316 316 316 316 316 315 314 313 312 310 312 312 311 313 315 317 317 319 319 319 318 318 318 318 316 314 313 312 313 311 312 312 312 313 313 312
306 306 307 307 307 308 310 312 313 313 314 314 315 316 317 320 321 321 321 319 322 322 322 323 323 323 321 321 321 322 323 322 322 323 324 324 324 323 322 321 320 319 318 318 318 318 318 317 318 316 316 316 316 315 314 312 312 310 311 312 311 312 313 315 317 318 323 319 319 319 318 316 314 315 312 312 311 311 311 310 311 311 312 312 311
303 304 305 304 305 306 306 309 311 312 312 312 313 314 315 316 319 321 320 319 320 321 321 322 323 320 319 320 320 321 321 322 322 323 323 323 323 323 322 321 321 319 318 318 317 317 317 317 317 317 316 316 315 315 314 312 311 312 312 311 311 312 315 316 317 319 319 319 319 317 316 315 314 314 313 312 313 313 315 312 311 310 312 311 309
301 302 303 304 303 304 305 306 309 311 311 310 311 311 313 313 314 316 318 320 320 319 320 321 321 320 318 319 319 319 318 320 322 322 322 322 322 322 321 320 321 320 317 317 317 316 316 316 317 317 316 316 314 314 313 313 313 312 312 312 312 313 315 316 315 315 316 316 317 316 315 315 315 314 314 315 315 314 316 313 313 312 310 310 309
299 299 300 301 302 302 303 305 308 309 309 309 309 310 310 311 311 312 313 315 317 318 319 321 320 319 318 317 317 318 318 319 321 322 322 321 321 321 321 320 320 319 317 317 316 316 314 314 314 314 312 312 311 310 310 312 314 313 312 312 313 313 314 314 314 315 314 314 313 313 313 312 312 311 313 313 314 313 313 313 312 313 313 311 310
298 298 298 298 298 300 301 304 306 307 307 307 307 308 308 309 310 311 312 312 314 316 318 320 319 319 319 318 317 317 319 320 320 321 321 320 320 320 319 319 319 318 318 317 316 314 313 313 312 311 309 309 307 306 305 306 313 314 313 314 315 315 316 315 315 314 314 314 314 314 314 314 316 314 310 310 311 313 312 311 311 312 312 311 310
297 297 298 298 298 298 299 302 305 305 305 306 306 306 307 307 308 309 310 311 311 312 314 319 319 319 319 319 318 318 320 319 319 319 319 318 318 318 319 318 318 318 317 315 315 314 313 311 309 308 307 306 305 304 302 301 308 316 316 316 315 315 316 315 315 315 315 316 317 318 321 321 316 314 309 303 301 303 308 310 309 310 310 310 308
296 297 298 298 298 298 298 299 302 304 304 304 304 305 306 306 307 308 309 310 311 311 314 319 318 318 319 318 318 318 318 317 317 318 317 316 316 317 317 316 316 315 315 315 314 312 311 310 308 306 305 303 302 301 297 297 304 308 316 317 316 315 315 315 315 316 315 315 314 316 317 321 318 315 307 300 299 299 298 299 301 305 309 309 308
295 296 296 297 297 297 297 298 298 300 303 303 303 304 304 305 306 307 308 310 310 311 312 314 317 318 318 317 316 317 317 317 318 317 317 316 316 316 316 316 316 316 316 314 312 310 309 308 307 305 304 302 300 297 294 296 302 305 310 317 317 316 316 316 316 316 316 315 315 316 316 317 318 318 316 313 307 300 298 298 299 300 299 297 301
294 295 295 295 296 297 297 298 298 298 299 301 302 302 302 304 305 306 307 307 308 309 310 312 314 315 316 316 316 315 315 315 315 315 315 315 316 316 316 317 317 316 314 312 310 309 308 306 305 303 302 301 299 295 294 297 300 301 305 312 316 316 317 316 316 316 315 314 313 315 316 316 319 325 320 318 317 312 302 301 302 303 302 301 296
295 295 294 295 296 297 298 298 298 299 299 300 301 301 302 303 304 304 305 305 306 307 308 309 311 313 315 315 315 313 312 312 313 315 316 316 315 315 315 316 316 315 313 311 309 308 306 304 303 302 300 299 298 295 294 298 300 301 304 309 317 315 315 317 317 316 316 315 314 314 313 313 314 315 314 315 317 315 314 313 312 311 312 310 305
294 294 294 294 295 295 297 297 298 299 299 299 299 300 301 301 302 303 303 303 303 304 306 307 309 311 313 314 314 312 312 312 312 313 314 314 314 314 314 314 315 314 312 310 308 306 305 303 302 302 300 298 296 293 293 297 301 302 303 307 317 317 316 316 315 315 315 316 316 316 315 314 312 308 302 300 312 314 314 313 311 310 309 312 312
293 294 294 294 294 295 295 296 299 299 299 299 298 299 299 299 301 301 301 302 302 302 303 304 306 308 310 312 313 312 312 312 312 313 313 312 313 313 314 315 315 314 312 310 308 305 303 302 301 300 300 299 297 293 293 295 299 301 305 316 317 317 317 317 316 316 315 315 316 315 314 311 308 304 298 292 296 305 314 313 312 311 311 310 306
294 295 295 296 296 295 296 296 296 297 298 299 299 299 298 298 299 299 300 301 301 301 301 302 303 306 309 310 311 312 312 311 311 312 312 312 312 312 313 313 312 310 308 306 304 303 302 301 301 301 300 298 297 294 293 295 297 302 308 317 317 316 316 315 313 309 306 307 309 309 309 307 305 302 294 291 292 301 313 312 313 312 311 310 309
295 295 295 296 296 296 296 295 294 295 296 298 299 299 298 297 298 298 299 299 299 300 300 301 302 303 306 308 309 309 310 310 312 310 311 312 311 312 312 312 310 307 305 304 302 301 301 300 299 299 298 297 296 295 293 294 295 297 306 314 314 315 313 310 306 304 302 302 303 307 305 302 302 299 291 291 293 305 311 310 311 309 310 308 306
295 295 295 295 296 296 296 295 295 295 296 297 298 298 297 297 297 297 297 298 298 298 299 300 301 302 302 304 307 308 308 309 310 311 312 312 312 312 312 311 309 307 305 304 302 301 300 299 299 299 300 297 296 296 293 293 294 295 302 306 308 310 310 307 304 302 302 301 300 299 298 297 297 293 289 291 292 302 308 308 308 307 306 304 303
294 295 296 296 297 296 295 294 294 295 296 297 297 297 297 296 297 296 295 296 297 298 299 300 300 301 301 301 302 303 305 307 309 310 310 310 311 312 311 309 307 306 304 303 302 301 299 299 299 297 297 296 296 295 294 293 294 294 297 303 304 307 307 307 305 302 300 299 299 298 297 290 290 290 289 289 290 293 306 307 306 304 302 303 304
295 295 294 294 296 296 295 295 295 295 295 296 296 296 295 296 296 295 295 296 297 299 299 300 300 300 300 300 300 301 301 302 304 307 308 309 309 309 308 307 305 304 302 301 299 298 297 297 297 297 297 297 297 295 294 292 293 293 294 298 303 303 304 302 301 300 300 299 298 297 296 293 290 290 290 289 290 291 296 305 304 304 304 300 295
295 295 296 296 296 296 296 296 296 296 296 295 296 296 295 295 295 294 294 296 297 297 298 299 299 299 299 298 298 299 300 301 301 302 303 305 308 309 307 306 304 302 300 299 298 297 296 296 296 296 295 295 297 297 295 293 292 292 292 294 299 300 301 302 300 300 299 299 299 297 296 293 290 290 290 289 289 290 292 299 295 290 289 290 294
294 294 295 295 294 295 296 295 296 296 295 295 296 296 296 296 295 295 296 297 298 299 298 298 298 298 298 298 298 297 298 299 299 299 300 301 302 305 307 306 304 302 300 299 299 298 297 296 296 296 295 295 294 294 293 293 292 291 291 291 292 295 295 301 300 298 297 296 296 295 295 294 290 290 289 289 290 292 294 291 288 288 289 290 294
296 296 296 296 295 294 294 296 296 296 296 296 296 295 295 295 295 297 297 297 297 297 298 298 297 296 296 296 297 297 296 297 297 297 298 298 299 299 300 302 304 302 300 298 298 297 297 296 295 294 295 294 294 293 292 291 292 290 291 291 291 291 293 296 295 294 293 293 292 291 292 290 290 290 290 289 287 288 288 286 286 287 291 294 295
294 295 296 296 295 295 295 295 295 296 296 296 296 295 295 295 296 298 297 297 296 296 295 295 295 295 295 295 295 295 295 295 295 295 295 296 296 297 297 297 298 298 298 298 298 297 296 295 294 292 293 293 293 293 292 291 290 290 290 290 290 290 290 291 292 292 291 291 290 290 290 291 291 291 290 290 289 289 288 287 286 288 296 295 295
295 295 295 295 295 295 294 294 294 296 296 297 297 296 295 295 297 298 297 297 296 295 294 294 295 294 294 294 293 293 294 294 293 293 293 293 294 295 295 295 295 295 296 295 295 296 295 293 293 292 292 291 291 291 290 290 291 291 290 290 290 290 291 291 291 289 290 290 290 291 291 292 292 291 292 292 292 292 291 290 290 292 292 291 292
294 295 295 295 295 294 294 294 293 294 295 296 296 297 296 297 297 298 297 297 296 295 293 293 292 292 292 293 293 292 292 292 292 292 292 292 292 293 293 293 294 294 293 293 292 292 292 292 292 291 291 290 289 288 288 288 288 288 288 289 290 290 290 290 290 290 291 291 292 293 292 291 291 291 291 292 292 291 292 292 292 291 291 290 290
295 295 296 295 295 294 294 294 294 294 295 295 295 295 296 297 297 298 296 295 295 294 293 291 291 291 291 292 291 289 290 291 291 291 291 291 291 291 290 289 290 292 292 292 292 291 291 291 291 291 290 289 289 288 288 287 287 287 287 286 286 287 286 285 288 288 289 292 292 292 292 292 291 292 292 291 291 290 290 290 291 291 291 291 292
294 294 294 294 294 293 293 293 293 294 294 294 294 295 296 296 297 297 296 294 293 293 293 291 291 291 290 291 291 291 291 290 290 289 289 289 289 290 290 289 290 289 290 292 292 291 291 291 290 290 289 289 288 288 288 289 286 288 286 286 287 286 286 287 288 287 291 292 291 291 289 290 289 288 288 288 289 289 289 290 291 291 290 292 291
293 294 294 294 294 293 292 292 292 293 293 293 293 294 295 296 296 296 296 294 293 293 292 291 291 290 290 290 291 291 291 290 290 289 289 289 287 288 289 290 289 289 289 289 289 290 290 290 289 289 290 289 288 288 289 288 288 288 288 288 289 289 288 289 288 289 291 289 288 288 287 287 287 288 287 287 287 287 287 288 288 288 288 289 288
290 290 290 290 290 292 291 291 292 293 292 293 293 293 294 294 294 294 294 294 293 292 291 290 290 289 289 289 289 289 289 289 289 289 289 288 289 289 288 288 289 289 289 289 289 289 289 289 290 289 289 289 289 289 289 289 290 289 289 289 288 288 288 288 289 289 288 287 287 287 287 287 287 287 286 286 286 286 286 286 286 286 286 286 285
Wind_Speed
9 9 9 11 12 9 9 8 8 7 8 9 10 11 11 10 9 10 10 11 10 9 6 7 6 6 3 5 4 2 5 5 6 5 4 3 5 6 6 6 5 5 5 6 6 5 5 5 5 4 4 4 5 6 7 6 6 6 7 6 8 6 2 4 4 4 6 4 5 5 5 4 4 4 3 1 2 2 3 3 2 3 3 3 2
8 8 8 9 8 8 9 9 10 11 8 10 12 12 10 10 10 9 9 10 10 10 9 7 5 6 7 7 4 4 5 5 5 4 4 4 5 5 6 6 7 6 6 6 6 6 6 5 5 5 5 5 4 5 6 7 6 6 7 7 2 7 6 5 6 6 2 4 6 3 3 4 4 4 3 2 3 2 2 3 2 3 3 3 2
8 9 9 10 11 11 10 10 11 12 11 11 9 7 8 9 9 9 9 10 9 10 10 8 7 6 4 3 4 2 1 2 2 3 4 5 5 5 5 6 6 6 6 6 7 6 6 6 5 5 5 5 6 5 6 6 6 7 7 8 6 1 3 4 7 3 5 4 3 5 2 2 1 2 1 2 2 2 2 2 2 2 3 2 3
15 15 15 12 11 10 8 9 9 8 9 8 8 9 8 8 7 9 10 10 10 9 9 10 10 5 3 5 2 2 2 3 2 3 4 3 4 4 5 3 6 6 6 6 5 6 6 6 5 5 5 5 6 7 6 7 6 6 6 6 8 6 3 3 3 4 5 10 4 2 2 2 3 1 2 2 1 3 2 2 1 2 3 3 4
14 12 10 11 11 10 10 9 8 9 9 10 9 8 6 7 8 9 10 11 10 10 9 8 6 2 2 4 4 3 3 3 3 3 4 4 4 5 5 6 5 6 6 6 6 6 6 6 6 6 5 4 5 6 6 7 7 7 7 7 7 8 7 5 8 5 6 2 6 5 2 1 3 2 3 2 1 3 1 2 2 2 3 3 3
18 18 15 13 9 4 4 5 7 8 9 8 6 5 4 5 4 6 9 10 10 10 9 8 6 6 5 5 5 4 4 7 8 8 6 7 6 4 4 6 5 5 6 6 5 5 6 6 6 6 5 4 5 5 5 5 6 6 6 7 6 4 9 8 7 4 6 4 3 2 5 5 6 5 3 3 0 1 1 0 1 2 2 2 2
3 3 6 8 6 5 4 6 7 8 3 2 2 5 2 1 4 7 8 9 11 10 10 8 7 6 6 6 5 6 6 4 3 4 5 3 3 4 4 4 4 6 6 6 5 5 5 5 5 5 5 4 4 5 6 6 6 6 6 6 6 5 5 8 8 6 3 5 3 1 0 2 8 9 4 4 3 1 1 2 1 1 1 2 1
9 8 6 3 3 3 3 3 3 7 11 7 4 1 3 3 5 7 5 7 8 10 10 9 9 7 7 5 3 3 6 5 4 4 4 4 4 4 4 4 4 5 6 6 6 5 5 5 5 5 5 5 4 5 6 5 5 4 6 6 6 6 6 7 7 7 9 4 0 1 2 5 7 3 4 4 6 6 3 2 2 0 2 2 2
2 2 4 8 10 10 10 9 10 11 11 10 6 7 5 3 4 4 5 5 6 10 10 9 8 7 4 4 2 2 2 1 3 4 4 4 4 3 4 3 3 4 3 4 5 6 5 6 5 5 5 5 5 5 4 5 6 6 6 6 7 7 7 6 7 7 5 5 3 1 3 4 3 2 4 1 3 5 3 3 3 2 2 0 1
8 9 7 6 6 7 6 7 7 4 4 7 10 7 6 6 3 3 3 3 4 7 8 9 7 6 5 3 6 1 3 1 3 4 4 4 5 5 3 3 4 5 5 3 5 5 5 5 5 6 5 5 5 5 4 5 6 6 7 6 6 6 4 6 7 6 5 4 4 5 3 3 3 3 1 3 3 1 5 6 4 4 4 2 0
7 7 7 7 7 7 6 6 4 3 3 5 5 6 10 9 5 5 2 3 5 4 7 9 9 8 5 6 8 7 4 4 4 5 5 5 5 5 5 3 3 5 6 5 4 4 5 5 5 5 5 4 4 5 6 6 6 6 5 6 6 7 6 5 5 5 5 5 4 5 7 9 8 6 7 5 4 3 5 4 4 3 3 4 2
9 8 5 3 3 2 2 1 3 4 4 4 4 5 4 1 7 9 6 9 6 5 5 7 8 7 7 8 9 8 8 4 4 6 7 6 6 6 5 4 3 4 3 4 4 4 5 5 4 4 5 5 5 5 6 6 5 5 5 5 5 4 5 6 5 5 5 5 4 5 5 3 2 4 6 7 7 6 8 7 5 3 3 1 2
9 7 6 6 5 3 1 0 1 3 0 3 0 1 2 4 8 3 5 4 7 6 7 8 6 9 9 8 8 8 8 9 7 5 5 6 6 6 6 6 5 4 4 5 5 5 5 5 5 5 5 5 5 5 5 6 6 5 5 5 5 5 5 5 6 6 7 7 6 4 4 4 4 4 6 6 4 6 7 8 3 3 3 3 2
6 6 6 4 2 1 1 3 5 6 5 6 2 2 1 2 2 10 12 11 7 4 6 8 9 10 8 7 7 7 9 10 8 7 6 5 6 7 7 7 7 7 6 6 6 5 5 5 5 5 5 4 5 5 5 5 6 6 6 6 5 5 4 4 5 5 5 4 4 5 4 5 3 5 6 6 7 8 7 9 8 2 3 4 2
6 5 4 2 0 1 3 4 3 3 1 5 3 1 2 2 2 3 7 9 4 8 7 8 6 2 6 5 6 6 8 6 5 6 7 6 5 6 6 5 6 6 6 6 4 6 5 4 5 5 4 5 4 4 5 5 5 5 5 5 5 4 4 4 4 4 4 4 4 5 5 3 3 5 6 6 7 8 9 9 9 9 4 3 2
6 4 3 3 3 4 4 3 2 2 1 4 4 3 2 2 3 2 3 5 3 7 2 0 4 6 8 7 6 4 2 2 3 4 4 5 6 6 6 5 5 5 4 4 5 5 5 5 5 5 5 5 5 6 5 5 5 5 4 4 4 3 4 4 4 4 4 5 5 3 4 4 4 5 5 6 6 7 7 7 7 8 10 6 3
7 6 6 6 6 6 5 5 5 2 3 5 5 3 3 1 4 4 6 6 6 3 9 10 5 5 4 5 5 5 5 4 5 3 1 1 4 4 5 4 3 3 4 3 5 4 6 6 6 6 6 5 5 6 6 5 5 5 5 5 5 4 5 5 4 5 4 4 4 5 5 5 4 3 3 5 5 5 6 7 7 9 8 10 6
7 8 6 6 6 7 6 6 6 6 4 3 3 4 7 9 10 11 12 12 11 11 9 4 4 5 4 6 6 7 7 4 5 8 6 1 3 3 3 4 3 3 4 4 5 5 5 5 5 5 5 5 5 5 6 5 5 5 5 5 5 5 4 3 4 5 4 3 3 3 3 4 3 3 4 4 5 6 7 7 7 5 6 9 7
8 6 6 6 6 6 6 6 6 6 6 7 5 2 4 8 7 7 6 10 12 9 5 5 3 4 6 8 8 7 5 6 5 6 8 9 4 3 6 6 5 4 6 6 5 5 5 4 5 4 4 5 4 5 5 5 5 5 4 5 4 5 5 4 3 4 4 4 3 4 3 3 3 4 3 3 4 6 7 6 6 5 5 2 7
7 7 7 6 6 6 6 6 5 5 5 6 7 7 7 1 8 12 8 6 8 7 7 8 8 6 7 8 7 7 6 7 7 7 7 5 5 3 5 8 8 7 7 6 6 6 5 5 4 5 4 4 4 4 5 5 5 5 4 4 3 4 4 4 3 2 4 4 4 4 4 4 3 3 4 5 5 4 5 6 6 6 4 3 4
9 9 9 9 8 8 8 7 7 7 7 6 6 7 7 6 9 13 13 11 11 9 8 7 7 7 4 6 8 9 8 6 6 6 7 8 8 6 6 7 7 7 7 7 7 6 5 5 4 4 4 4 5 4 4 4 4 4 3 4 4 4 5 4 4 3 2 4 4 4 4 4 3 4 3 4 6 5 4 6 5 6 5 4 5
9 9 10 9 10 10 9 8 7 7 7 7 7 6 7 8 8 7 7 9 8 7 6 5 5 5 4 5 7 7 7 6 8 9 8 7 10 10 8 7 8 7 7 7 7 5 5 5 4 4 4 4 5 5 4 4 5 4 4 3 5 4 4 4 4 4 4 4 4 4 4 4 3 3 3 3 3 4 6 5 4 6 6 6 4
9 10 9 10 10 10 9 10 10 10 9 10 8 7 7 7 7 6 7 5 1 3 3 4 4 4 4 4 5 6 7 8 9 8 9 9 11 10 8 9 8 6 6 8 7 6 5 5 4 4 4 4 5 5 5 5 5 5 4 3 3 5 5 5 4 4 4 3 4 4 4 3 2 4 2 2 1 3 4 6 5 5 7 7 6
9 9 9 9 9 9 10 11 10 9 9 10 10 10 8 6 5 4 5 4 2 2 1 3 4 4 4 5 5 6 8 9 9 9 11 9 11 10 8 9 8 7 8 6 7 6 6 5 4 4 4 4 5 4 5 5 5 4 4 5 4 4 6 5 5 4 4 4 4 4 3 2 2 3 2 1 1 1 3 5 5 6 7 8 7
10 10 10 10 11 11 9 8 9 9 8 9 10 10 9 7 6 6 5 3 4 3 1 1 3 4 4 5 5 6 9 9 9 9 10 9 9 9 7 9 8 7 7 6 5 5 5 5 5 4 4 4 4 4 4 4 4 4 4 4 4 4 5 5 5 5 5 4 4 4 3 3 3 4 3 4 2 3 3 2 4 6 7 7 5
9 10 11 10 8 8 8 8 8 9 8 8 9 9 9 8 8 7 5 6 4 2 2 2 4 4 3 5 6 6 7 8 9 8 8 7 9 9 8 7 8 8 6 6 6 5 5 5 5 4 4 4 4 4 4 4 4 3 3 3 3 5 5 5 4 4 4 4 4 3 3 3 4 5 3 3 4 4 4 4 3 3 5 6 6
10 8 8 9 11 10 10 10 9 9 9 8 8 8 8 8 9 8 7 5 5 3 2 3 2 1 2 3 2 3 2 1 6 10 9 7 7 8 8 7 7 8 7 6 6 6 5 6 5 4 4 4 4 3 3 2 3 3 3 3 4 4 5 4 3 3 4 4 5 5 5 5 6 4 4 5 5 4 5 4 3 3 2 6 6
7 8 10 10 8 9 9 9 9 9 10 10 9 8 8 8 9 10 8 7 7 6 3 3 3 4 2 1 1 4 2 1 3 1 5 7 7 7 6 6 6 7 7 6 7 7 4 4 4 5 5 4 5 5 4 3 2 4 4 4 4 6 6 6 6 5 6 6 7 7 8 7 7 5 5 5 4 4 3 5 4 3 4 5 5
11 11 9 9 9 9 9 9 9 10 10 10 10 10 10 9 9 9 8 8 7 7 5 3 2 2 4 4 4 4 5 5 2 2 2 1 6 6 6 6 6 6 5 5 5 7 8 8 7 7 7 6 6 5 3 2 2 3 4 5 6 7 8 8 7 7 6 6 6 7 7 7 8 10 11 9 7 6 5 6 4 4 5 5 4
9 9 8 8 8 8 8 8 9 9 10 10 10 10 9 9 9 9 10 9 7 7 5 2 2 3 4 6 7 4 6 5 4 4 1 5 1 6 6 6 6 6 5 7 8 8 9 9 8 7 7 6 6 4 5 4 1 4 5 6 7 7 7 8 8 8 6 5 5 5 6 11 12 12 11 11 11 11 9 6 4 6 6 4 3
8 9 8 8 8 9 9 10 9 9 9 8 8 8 9 10 10 10 10 9 8 8 6 2 4 2 4 6 7 6 6 6 6 5 2 2 2 5 4 5 4 6 8 8 10 10 9 8 8 8 9 7 5 4 9 7 4 11 9 8 9 7 6 7 7 7 6 5 3 3 4 6 7 6 6 9 10 10 10 10 10 9 7 6 5
9 8 9 9 9 10 10 9 9 8 8 8 8 8 9 9 8 9 8 8 9 9 9 8 4 2 6 7 7 6 7 7 7 6 4 2 2 5 6 6 8 9 8 10 11 10 8 8 8 8 9 6 5 7 7 6 8 15 12 9 8 7 6 6 6 6 5 4 4 5 3 3 3 2 4 5 7 7 9 8 7 7 8 10 8
8 8 8 8 8 8 8 9 8 8 7 8 6 7 8 7 8 7 6 9 10 10 11 10 10 9 5 6 8 7 6 5 5 7 7 3 4 7 8 9 9 9 9 11 10 10 9 7 9 10 8 6 6 8 7 7 10 12 14 11 7 7 7 6 5 5 4 4 3 6 6 3 1 3 3 3 3 3 3 5 4 4 5 6 7
7 6 7 7 7 6 6 7 8 8 8 7 8 7 6 6 6 8 10 9 10 11 10 10 10 9 8 6 6 9 8 6 5 8 9 6 7 8 8 9 10 10 12 11 10 10 8 8 8 9 8 6 6 8 8 8 10 13 14 11 7 6 6 6 5 3 4 4 3 4 4 4 3 5 6 5 3 3 2 2 2 3 3 2 3
6 7 8 7 7 7 7 8 7 7 6 7 8 7 5 8 8 9 9 9 10 11 11 10 10 8 9 8 7 8 10 8 6 7 9 8 7 8 7 8 10 10 11 10 9 9 7 7 7 7 8 9 6 9 8 8 8 13 14 12 9 8 5 7 5 3 2 2 4 5 5 5 5 5 5 7 3 3 2 2 2 2 3 4 3
7 7 7 7 8 7 7 6 5 6 5 6 6 6 7 7 7 9 8 9 9 11 11 10 10 10 9 9 8 7 8 7 8 9 9 10 8 7 11 6 11 10 10 10 9 8 8 8 7 8 9 9 8 11 8 8 5 8 12 9 8 8 5 6 4 4 6 6 6 6 6 6 5 4 7 9 6 3 1 2 1 1 3 3 3
4 5 6 6 6 7 7 6 6 6 7 6 6 6 5 6 9 8 9 10 11 12 11 10 10 10 9 8 7 7 6 6 5 8 11 8 9 7 10 7 10 11 11 10 9 8 7 7 8 9 10 8 8 11 10 10 10 9 10 8 7 6 6 6 6 6 7 8 8 7 7 5 5 5 8 10 9 4 0 1 0 1 3 4 5
6 5 5 7 7 7 7 6 6 7 8 7 7 6 6 8 8 8 9 10 11 11 10 10 10 9 8 8 7 7 7 6 7 7 6 8 7 6 6 8 9 9 11 9 10 10 9 9 10 10 8 9 8 11 12 13 13 12 7 7 6 8 8 8 7 6 7 8 10 15 9 6 6 5 8 10 10 6 4 4 3 1 2 3 5
9 9 9 8 8 6 6 8 8 9 8 7 7 7 7 8 8 8 8 10 10 8 9 9 9 8 9 8 8 8 7 7 7 6 5 7 8 8 6 7 8 9 10 8 8 10 8 8 11 11 12 10 8 9 13 14 14 12 7 5 7 8 8 6 6 6 6 6 6 7 9 8 5 4 7 8 10 7 4 4 4 4 4 3 2
8 11 10 8 8 9 10 9 9 8 7 7 6 8 8 8 9 8 8 8 8 7 6 7 8 9 9 9 8 9 8 7 6 7 7 7 5 7 8 9 8 8 10 9 9 10 12 10 9 8 6 6 8 8 12 16 14 13 10 6 5 8 8 6 5 5 6 5 5 4 5 7 6 4 4 5 6 6 4 3 3 4 3 3 3
8 8 7 9 10 9 8 7 6 7 7 6 6 8 9 8 8 8 8 7 6 6 7 8 8 9 10 11 10 9 10 10 8 6 7 7 6 7 8 9 9 9 10 9 11 10 11 10 8 6 7 8 7 9 11 15 15 15 13 10 7 7 5 6 6 6 5 5 5 4 3 6 7 5 4 4 3 4 3 4 3 3 1 3 4
7 9 7 5 6 8 11 11 9 8 6 5 6 9 8 8 8 9 6 5 6 7 7 9 10 10 10 11 11 10 10 8 9 8 9 8 7 7 7 8 9 10 12 11 10 10 11 9 7 7 7 8 9 12 8 13 15 15 14 12 7 5 3 6 7 6 5 4 4 3 3 5 6 6 5 3 4 4 5 4 3 4 4 3 1
8 9 8 8 8 9 8 8 8 8 6 6 7 10 9 8 9 7 6 6 6 7 8 9 9 10 10 11 11 11 10 8 8 9 9 9 7 8 8 8 10 10 11 11 10 9 10 9 8 7 6 6 6 8 11 10 12 14 14 14 12 8 9 6 6 6 4 2 2 3 3 6 7 6 6 5 4 4 4 3 3 5 6 5 2
5 6 6 7 8 8 9 9 8 8 7 7 7 8 8 8 8 5 5 6 7 7 8 9 8 8 9 9 10 10 10 10 10 9 9 10 9 9 9 7 8 9 8 9 7 7 8 9 8 6 5 6 5 5 9 11 10 14 14 14 14 13 10 6 5 4 3 3 4 4 5 8 6 6 6 5 4 5 4 4 4 5 6 5 4
5 5 4 5 7 6 6 8 8 9 8 8 7 8 8 8 6 5 5 5 5 6 7 7 7 7 8 8 9 10 10 9 9 9 9 9 9 9 9 8 9 8 7 7 7 6 7 7 7 6 5 4 5 5 5 8 11 11 12 11 11 11 10 8 5 4 3 3 3 5 5 3 3 4 4 4 3 3 4 3 4 5 5 6 6
5 5 5 5 5 5 6 6 7 8 8 8 8 8 9 6 6 6 5 5 5 6 7 7 7 7 7 7 9 9 10 10 10 9 9 8 8 8 8 7 8 7 7 8 6 6 6 7 6 5 4 4 4 5 6 6 5 6 6 9 7 8 7 6 5 4 2 2 4 6 10 10 9 7 6 7 6 6 5 6 6 6 4 4 4
5 4 4 5 5 6 7 7 7 7 7 7 8 8 7 6 6 5 5 6 6 7 7 7 7 7 7 8 9 7 8 9 9 8 8 8 7 7 8 8 7 7 7 7 6 6 6 5 5 4 3 4 5 5 5 4 5 5 5 5 5 6 6 7 6 6 7 8 10 11 9 10 11 13 12 10 10 9 10 9 7 7 6 5 2
3 3 4 4 5 5 5 6 6 7 7 8 8 8 7 7 6 5 5 7 7 6 7 7 7 7 7 7 8 9 10 8 9 9 8 8 8 8 8 7 6 5 6 6 5 5 5 4 4 3 3 4 5 4 5 5 5 4 5 4 4 5 6 5 6 5 5 5 7 8 11 9 9 10 9 9 8 8 7 7 7 7 6 6 4
2 2 3 4 4 4 4 4 6 6 8 9 9 8 8 8 6 5 6 7 7 7 6 7 6 7 7 6 6 7 7 7 8 9 7 6 6 6 7 7 6 4 3 4 6 5 4 4 4 4 4 5 5 5 3 3 3 3 2 3 5 5 4 5 4 3 4 7 9 10 9 10 9 9 9 8 8 8 8 7 8 7 7 7 6
2 3 3 3 3 3 4 5 6 6 7 8 9 9 9 9 7 6 6 7 7 7 7 6 6 6 5 6 6 6 6 6 7 7 8 8 9 10 7 6 6 8 12 11 6 5 4 3 5 3 1 5 3 2 7 7 6 4 3 1 1 2 4 5 5 7 8 9 8 9 8 8 8 7 8 7 7 6 6 7 7 7 7 6 6
5 4 4 3 3 4 4 6 6 5 6 8 9 9 9 9 8 7 6 6 7 7 6 5 6 5 5 5 6 6 5 5 5 5 6 6 5 7 9 10 8 8 9 10 11 10 9 6 4 4 2 2 1 3 4 4 3 4 3 4 4 6 7 6 3 8 11 8 8 8 7 7 6 6 6 6 5 6 5 5 6 6 6 6 5
Wind_Direction
165 156 153 162 175 169 153 152 150 162 167 163 173 180 175 169 156 156 149 141 142 150 163 165 174 185 179 208 232 146 164 168 175 187 179 158 159 158 152 158 162 157 152 148 150 144 139 139 131 129 129 129 131 135 137 136 138 129 117 125 131 133 122 126 127 124 113 76 63 74 65 63 97 106 108 130 98 104 116 125 125 118 119 107 115
148 151 163 169 173 169 158 154 157 164 174 177 188 186 176 169 165 156 148 145 153 154 164 182 194 190 177 181 176 175 168 173 171 168 172 173 166 166 159 160 164 162 158 155 152 150 147 142 137 140 135 135 134 133 132 131 131 126 128 113 117 149 149 155 150 131 107 148 134 116 76 66 72 73 80 61 75 85 116 135 136 139 143 138 114
165 166 169 177 182 178 171 169 177 172 170 184 190 177 177 177 164 160 157 151 161 161 158 176 197 212 193 126 150 138 141 120 100 149 173 173 167 163 164 166 165 162 161 157 154 158 146 140 148 144 140 140 131 130 131 129 140 141 143 138 135 228 117 134 171 169 133 128 106 98 138 116 83 76 57 69 87 116 135 145 138 134 122 124 116
174 177 179 184 188 183 180 178 177 169 171 182 185 187 183 179 165 162 159 156 162 165 162 182 200 202 62 86 104 111 147 134 121 131 155 157 180 172 163 165 167 163 165 158 152 154 147 150 149 149 149 157 149 146 143 142 140 139 138 142 144 145 138 148 205 254 158 140 140 177 135 81 128 216 132 51 97 134 144 127 153 131 130 129 135
173 179 180 184 191 194 188 184 175 179 185 185 182 185 181 177 180 171 162 163 166 165 160 163 184 158 85 65 103 82 86 118 142 164 164 179 185 194 166 191 184 160 164 161 158 154 150 150 154 153 154 164 157 149 155 157 153 153 147 148 167 156 154 147 204 228 209 238 133 124 97 149 214 143 113 47 83 126 128 148 169 153 140 158 156
172 178 183 186 187 182 204 193 190 195 197 194 173 166 180 178 181 185 167 163 165 165 157 157 172 163 153 167 161 169 158 159 187 182 173 178 192 177 164 178 172 160 158 157 157 152 151 153 154 150 157 161 167 153 142 135 145 152 163 164 173 190 149 157 190 227 217 226 238 138 160 170 158 150 155 148 153 72 161 92 150 140 152 157 155
181 186 177 175 182 187 211 208 209 207 210 70 149 168 164 233 185 193 183 168 164 163 160 159 166 174 174 187 196 192 186 189 159 165 172 156 135 169 169 177 162 160 156 155 157 152 144 148 155 154 157 164 157 140 150 159 161 168 165 173 183 162 136 166 179 191 203 268 250 306 127 120 144 147 182 116 139 141 123 122 167 206 167 158 138
176 177 187 187 167 194 234 309 335 7 21 10 1 301 185 224 199 188 193 176 167 156 161 164 168 175 176 181 174 214 203 185 158 134 119 136 150 165 168 179 173 162 150 145 149 151 149 154 158 153 155 168 165 161 162 167 164 172 175 175 173 164 171 165 168 168 180 216 38 37 52 110 139 87 131 156 135 147 147 75 69 87 136 134 115
115 101 56 38 38 34 28 15 12 14 9 4 340 325 313 268 220 187 180 182 161 158 156 161 165 165 147 97 91 338 326 74 98 112 126 137 133 145 164 160 155 137 127 147 148 152 158 158 158 155 154 170 177 170 168 161 173 165 165 154 166 169 174 163 150 172 177 183 117 24 81 122 93 81 124 106 140 145 101 149 146 100 72 44 29
64 66 81 93 95 89 85 72 57 63 49 21 5 341 321 309 255 202 173 174 159 156 151 147 112 75 90 112 162 168 325 313 146 143 142 144 145 147 138 149 154 127 146 191 147 162 157 158 160 165 169 168 171 178 168 164 166 158 161 159 156 157 158 155 164 167 177 170 157 152 136 113 89 90 79 102 49 39 158 159 157 152 147 188 67
98 96 82 79 74 79 86 100 119 113 112 83 67 23 353 319 248 190 174 134 152 141 142 105 96 127 164 160 164 173 214 236 184 150 141 143 147 135 155 151 150 154 157 189 167 163 157 162 165 168 163 166 164 155 168 163 163 152 150 144 151 152 161 159 151 156 160 163 168 165 166 175 174 167 171 169 151 137 110 131 143 141 151 138 245
72 67 60 66 61 61 67 125 171 175 147 121 147 152 162 342 343 341 7 4 328 157 107 105 127 143 184 174 173 175 176 201 213 182 159 157 148 148 145 145 158 170 170 171 186 171 162 170 166 156 163 162 166 162 156 149 147 141 143 148 155 152 145 150 154 154 161 167 177 180 182 165 123 144 167 159 153 158 150 149 155 127 98 105 97
55 48 45 39 35 13 36 291 240 264 80 79 87 149 167 171 137 152 319 241 236 245 121 109 169 171 186 172 174 177 183 179 182 202 178 160 156 150 158 170 172 172 182 181 198 176 166 166 166 162 172 169 158 154 152 143 144 145 146 148 152 157 160 155 156 171 166 167 187 193 175 179 189 156 146 152 136 136 143 141 144 146 132 124 117
67 60 57 43 22 55 173 207 221 226 180 136 191 187 218 258 135 159 210 220 218 200 108 158 189 188 171 172 172 168 182 185 174 173 178 174 166 169 174 176 177 183 178 192 188 171 177 180 172 172 175 163 160 157 143 144 145 150 152 153 163 169 147 153 160 161 172 174 155 171 194 197 186 160 153 142 147 140 150 152 147 112 107 128 114
52 62 63 71 227 250 243 241 263 269 121 157 174 192 198 204 190 176 195 220 213 101 137 190 191 143 175 171 167 177 180 175 166 165 162 168 176 176 183 176 177 183 181 191 174 173 170 159 171 165 162 166 162 160 149 144 145 141 154 161 154 152 153 146 139 149 171 163 173 180 188 188 178 169 152 165 160 164 157 162 149 136 109 118 132
17 23 14 357 342 324 315 305 284 288 325 167 174 168 125 86 49 93 278 330 58 117 95 243 242 202 184 166 168 159 136 144 124 138 154 165 174 180 187 184 184 170 178 167 173 157 149 154 151 151 156 165 170 156 149 144 144 138 144 147 154 150 144 153 151 149 172 180 176 167 157 192 178 169 165 164 173 163 158 156 157 149 146 151 139
41 26 10 356 344 343 329 319 303 283 177 176 183 182 145 108 107 83 36 60 84 204 195 197 188 204 177 149 138 136 164 187 166 132 114 155 178 188 181 190 154 154 154 152 141 140 144 146 139 138 138 140 137 147 149 148 142 140 149 153 147 147 144 161 149 153 175 168 154 171 176 175 186 173 153 157 158 157 159 159 166 166 167 144 154
52 48 34 15 1 5 355 339 330 320 303 95 121 162 128 122 125 130 146 151 164 200 205 180 180 190 173 151 157 160 176 151 127 119 105 31 286 183 157 144 160 162 139 130 127 130 134 131 128 125 122 114 126 136 144 145 137 141 153 153 151 139 139 141 159 159 168 151 143 153 154 178 172 165 176 161 158 165 158 167 171 171 166 158 157
56 49 39 21 11 357 348 343 348 348 355 347 354 318 144 144 152 147 166 165 172 190 172 160 214 209 190 176 173 160 154 149 144 132 137 156 193 221 165 162 146 143 126 125 124 123 124 124 124 124 112 109 112 129 132 136 136 135 145 143 131 129 140 162 179 163 161 146 151 168 186 190 177 175 157 167 175 161 167 164 168 158 186 156 147
47 42 32 23 9 359 355 4 18 16 9 1 350 350 325 292 162 133 139 165 170 180 182 169 193 213 196 176 175 162 164 161 163 150 144 142 120 263 189 152 155 144 137 139 136 136 133 131 133 125 117 109 113 138 133 130 128 137 146 143 136 128 142 168 185 181 151 160 158 176 198 198 197 171 161 175 186 178 152 163 166 167 166 156 145
41 38 29 21 14 13 10 8 2 7 12 10 13 354 337 323 281 146 154 171 173 174 184 173 185 215 216 168 170 165 166 145 129 125 137 152 148 190 221 156 142 141 144 139 139 141 140 139 130 127 133 117 128 142 134 131 132 143 150 154 142 154 163 175 156 182 169 157 174 182 199 214 173 158 172 164 166 176 160 169 162 153 167 169 151
38 37 31 30 23 16 12 12 17 18 10 6 3 359 5 351 340 314 161 181 158 157 170 160 189 202 210 174 167 160 156 140 140 155 158 165 153 172 197 146 146 149 140 138 137 140 139 134 125 139 122 127 138 144 142 138 147 152 158 140 142 150 160 165 155 152 164 170 163 175 203 200 193 148 160 161 147 156 163 156 162 165 175 186 181
41 39 28 29 23 20 17 19 19 20 20 14 5 10 1 9 357 343 348 5 16 150 142 141 178 194 205 189 168 159 153 150 156 162 164 167 159 171 173 144 142 143 136 139 143 143 146 134 128 134 126 143 133 135 145 144 153 151 143 164 171 151 153 162 168 164 166 158 145 155 188 174 174 138 116 47 178 160 167 177 173 165 179 188 185
36 42 37 25 25 21 20 11 11 12 16 16 14 13 5 353 349 351 3 2 346 3 70 157 184 200 206 194 185 165 160 160 163 169 166 173 163 163 148 140 141 140 142 144 145 147 143 141 138 135 141 127 112 132 141 144 143 138 159 181 189 160 161 169 170 169 163 156 156 144 172 147 133 97 54 11 9 347 162 189 160 160 170 182 183
34 31 30 26 28 22 15 4 4 5 14 18 14 12 7 356 346 338 314 8 11 21 14 216 220 212 196 198 198 178 168 165 166 171 164 162 155 144 138 136 140 145 147 143 144 143 144 144 149 151 136 129 129 132 122 126 134 159 152 140 138 141 153 162 163 165 166 152 149 156 161 115 111 94 30 20 16 63 76 90 146 158 161 170 164
37 35 31 28 21 19 15 10 7 6 9 15 15 12 9 0 344 326 342 358 351 353 338 267 228 228 217 199 196 183 174 166 168 166 149 156 151 147 140 138 145 148 147 145 147 153 155 160 159 154 145 134 127 127 135 159 142 97 84 107 144 138 146 144 147 158 157 149 141 120 110 110 91 99 85 86 80 75 62 57 76 108 143 147 149
41 36 38 34 27 17 10 7 5 9 10 11 14 6 11 359 353 358 356 344 322 333 341 328 291 203 262 231 213 143 77 329 183 153 166 152 160 145 140 140 147 149 147 147 157 159 167 156 161 147 136 114 101 95 108 121 115 86 102 104 82 99 124 125 111 90 73 70 72 72 62 60 70 77 108 106 98 80 75 60 70 85 97 129 139
38 34 32 31 24 17 11 8 9 11 8 9 10 11 8 5 356 352 357 359 341 318 330 353 25 17 22 339 39 60 37 344 319 156 164 152 146 142 136 138 142 150 150 149 159 160 142 104 84 75 59 70 76 63 45 23 69 119 111 94 105 95 88 82 78 77 83 84 90 90 86 83 87 79 77 59 45 60 73 69 23 78 97 109 123
35 34 25 17 17 9 11 13 13 11 10 4 5 5 5 4 2 353 355 0 343 337 344 55 113 91 67 49 55 44 85 59 44 22 8 42 141 136 132 137 143 147 151 133 111 111 103 90 73 72 67 54 60 47 22 9 65 96 107 108 95 97 100 99 93 85 80 88 88 89 90 97 95 90 84 85 87 99 102 85 48 45 44 56 73
30 26 22 16 17 14 15 21 18 16 11 7 4 6 6 5 359 354 357 354 355 348 319 66 141 112 100 102 108 101 101 100 83 84 62 313 198 133 137 140 146 146 109 92 94 90 94 99 95 76 69 61 49 46 7 347 186 132 102 88 88 100 105 107 105 96 84 77 80 87 91 97 99 98 95 88 84 77 69 86 102 90 83 71 53
23 18 14 9 23 22 23 25 20 20 16 13 8 3 3 5 1 360 358 351 357 2 344 153 133 114 99 99 102 105 83 82 74 73 75 320 239 126 121 119 108 90 95 96 95 90 85 85 90 91 79 66 53 25 359 15 135 115 100 95 101 96 97 98 99 107 109 103 79 68 71 69 74 84 92 104 103 97 95 90 87 100 115 119 108
23 16 4 1 14 20 22 19 15 10 19 21 13 10 13 4 358 1 352 353 11 10 19 21 28 77 106 102 108 107 102 102 107 110 84 335 124 105 104 102 100 98 94 93 89 90 89 90 90 84 77 65 61 18 0 10 91 98 105 106 106 105 104 103 105 110 119 112 94 75 62 46 48 84 117 86 71 87 106 112 115 113 115 126 142
19 14 4 8 2 9 18 18 20 15 4 358 1 20 18 1 5 353 2 22 23 22 21 25 28 9 37 98 108 105 97 88 97 101 83 32 78 92 99 100 98 102 98 93 97 91 88 85 88 84 75 59 60 18 14 32 68 85 97 102 99 111 109 111 108 99 93 77 85 95 85 69 2 13 50 70 107 98 90 112 137 152 146 131 138
16 10 12 7 1 3 13 24 23 18 16 10 9 9 5 5 6 11 21 21 32 31 28 26 27 21 9 26 72 88 72 62 76 93 98 92 92 90 99 104 103 99 97 96 92 93 92 88 83 85 80 61 58 11 21 42 76 87 87 85 76 71 75 69 62 65 83 124 199 110 105 88 61 42 25 16 29 75 77 72 42 19 18 31 78
2 11 11 6 2 10 15 17 18 15 17 19 18 8 5 23 17 26 20 24 27 34 32 29 29 22 22 23 36 75 89 81 66 74 79 79 70 83 65 89 97 95 94 93 94 93 85 84 82 83 81 62 32 14 24 39 71 92 96 102 101 88 79 105 102 125 197 97 50 60 74 69 48 34 18 353 359 17 52 55 43 5 2 353 3
14 13 11 10 7 13 10 3 6 11 17 27 22 359 21 29 27 31 27 30 31 36 31 26 28 22 31 27 23 37 69 81 89 86 78 81 74 78 92 79 90 84 84 85 77 78 80 78 74 74 74 63 39 22 25 45 53 109 103 87 89 105 108 81 80 58 47 43 47 51 75 72 66 53 358 357 355 320 57 88 48 2 10 14 23
0 7 13 4 14 19 11 11 21 21 20 20 12 10 19 35 41 32 37 35 35 34 26 27 29 25 26 34 32 42 37 55 56 90 97 78 84 65 78 59 82 91 84 77 78 72 67 68 62 57 65 58 46 19 24 43 49 61 89 102 108 101 93 84 55 49 49 46 48 53 57 61 52 40 359 353 356 329 133 100 111 26 33 35 22
15 3 19 15 14 21 21 23 24 27 24 24 14 13 24 42 42 35 40 41 42 33 22 27 27 21 28 29 35 43 43 37 56 30 70 91 75 55 68 92 87 85 87 88 90 79 65 67 76 71 61 66 48 26 31 43 49 44 76 108 114 103 91 81 75 56 58 55 47 48 51 55 49 34 5 5 5 15 46 15 46 66 37 33 16
25 13 16 11 6 19 26 27 26 30 14 14 24 25 31 40 37 34 34 46 42 33 30 30 24 25 30 37 35 39 45 44 56 56 48 77 94 95 88 83 90 94 93 94 88 89 85 68 61 58 50 57 54 35 34 46 48 44 54 78 94 101 97 95 95 78 63 63 55 51 50 49 53 22 19 17 15 23 57 31 10 45 51 52 343
37 30 19 8 358 18 26 26 24 20 8 12 17 36 35 37 33 27 31 34 30 18 26 42 41 38 36 38 36 44 41 47 51 59 58 59 70 91 93 95 92 91 86 84 80 76 74 64 60 58 53 55 61 48 38 44 47 47 47 69 68 99 107 108 92 85 77 57 57 51 49 45 55 57 41 34 29 27 73 55 46 58 41 346 321
55 61 51 32 19 13 13 6 6 11 13 9 19 42 36 30 34 32 25 16 11 16 28 44 47 46 43 40 36 35 40 36 32 46 62 58 61 81 88 92 94 89 90 84 85 85 81 74 66 58 55 46 45 54 41 42 45 45 41 55 69 75 95 103 98 85 79 72 46 37 33 36 33 38 33 36 45 49 64 88 80 109 57 349 344
55 50 50 47 41 24 19 10 7 5 6 10 28 49 38 31 32 29 11 358 19 26 33 39 43 43 46 45 40 35 38 39 33 38 54 58 57 71 79 89 96 99 96 92 90 87 86 83 76 64 58 54 42 41 51 41 44 47 46 46 67 57 60 100 84 78 66 59 30 13 11 9 11 23 37 52 62 61 36 52 32 360 329 340 299
49 46 38 45 39 24 20 17 2 8 3 4 32 49 39 33 37 19 8 16 19 27 40 44 42 42 44 48 44 40 39 34 35 37 54 56 48 63 75 86 92 92 97 99 94 95 95 89 75 59 54 51 47 47 43 50 46 49 48 49 51 56 49 66 82 78 62 32 359 353 344 1 359 2 31 56 71 68 58 41 358 3 357 349 1
73 73 62 49 49 31 18 5 8 6 12 13 22 41 35 33 23 356 22 36 39 43 49 48 43 43 42 42 49 48 44 39 35 39 49 55 51 54 55 56 75 87 89 88 90 93 91 89 85 68 51 44 39 49 42 41 44 45 47 47 46 45 46 64 68 77 39 25 8 357 334 330 344 2 46 75 57 36 33 360 4 359 2 14 45
60 51 46 56 55 41 29 13 7 6 11 18 21 30 21 24 360 10 20 36 52 54 54 52 47 44 50 49 49 49 49 46 40 43 50 49 54 55 62 51 57 59 68 84 83 78 80 83 79 72 53 40 26 36 41 32 36 43 46 47 50 48 40 40 52 28 29 8 322 306 309 339 10 57 58 109 78 52 17 12 31 21 28 41 39
52 50 44 47 47 47 41 25 10 4 10 11 18 29 25 352 343 11 21 26 43 55 55 54 48 44 40 54 63 55 51 50 51 48 50 47 54 57 64 60 63 66 73 82 87 82 76 72 71 66 60 42 29 28 27 21 19 27 34 34 43 52 49 62 84 63 35 35 40 56 57 57 55 49 51 41 35 21 37 52 38 31 37 43 51
60 42 48 42 45 42 32 24 15 358 3 6 16 19 14 2 10 5 28 42 43 49 57 57 56 54 49 48 55 58 60 51 49 54 54 51 49 57 64 60 60 69 72 77 77 81 83 81 80 72 66 49 40 33 17 14 13 17 20 8 23 30 32 47 53 35 37 45 54 60 67 68 71 66 65 61 51 39 37 28 25 22 22 14 52
53 46 52 60 54 51 31 17 8 353 358 4 10 9 6 11 12 20 35 50 47 55 62 59 57 58 55 55 61 57 63 63 51 50 50 52 52 57 61 53 46 42 78 77 78 77 78 90 100 82 61 55 41 34 24 5 354 4 1 7 23 37 35 39 49 40 42 52 67 59 53 43 46 45 40 37 33 37 39 32 26 18 13 14 25
75 48 50 67 73 64 50 37 15 5 14 21 20 12 5 15 21 31 47 58 56 52 60 64 64 64 59 53 58 60 67 73 73 63 49 36 36 47 69 73 50 28 33 94 105 82 69 61 75 71 70 56 37 21 339 298 283 290 312 360 23 24 24 45 52 36 68 60 56 52 46 45 42 47 41 38 28 27 26 24 28 21 14 16 16
29 52 50 41 40 62 52 37 27 22 30 33 28 20 13 6 9 18 40 58 62 64 63 59 63 65 59 60 59 56 57 65 72 79 80 69 51 56 48 71 64 43 57 54 63 92 98 100 89 50 57 89 80 289 292 304 289 285 266 260 346 27 50 59 54 54 68 70 61 64 52 53 48 48 48 42 33 29 26 20 11 11 18 22 18
69 70 38 35 12 13 40 38 31 29 36 36 32 23 17 12 11 5 24 54 61 67 67 64 63 64 71 81 82 74 63 64 62 71 75 83 70 44 49 58 66 65 64 64 69 74 72 66 84 82 31 79 77 333 324 304 279 222 171 116 97 82 72 64 61 83 53 61 63 65 54 51 52 55 55 44 36 41 30 25 11 0 12 14 8